Date String (YYYY-MM-DD hh:mm:ss) UTC,Instrument flags,absolute air pressure of the measurement (hPa),sample flow rate (lpm),inlet stack bypass flow (lpm),air temperature of the measurement (°C),ambient temperature measured by the external sensor (°C),aerosol sample conditioner tube jacket temperature (°C),OPC LED temperature (°C),internal box temperature (°C),relative humidity of the measurement (%),span deviation,mass concentration of particles derived from Lorenz-Mie calculation of OPC scattering (μg/m³),mass concentration of particles derived from Lorenz-Mie calculation of OPC scattering (μg/m³),mass concentration of particles derived from Lorenz-Mie calculation of OPC scattering (μg/m³)
DateTimeUTC,F1_M11,P_M11,Q1_M11,Q2_M11,T1_M11,T2_M11,T3_M11,T4_M11,T5_M11,U1_M11,ZSPAN_M11,X2_M11,X0_M11,X1_M11
2023-06-28 23:00:00,SystemResetWarning,0827.8,5.00,000.00,029.8,027.0,000.0,038.1,030.8,33.4,-001.2,0010.02,0036.52,0007.63
2023-06-28 23:01:00,SystemResetWarning,0827.8,4.99,000.00,029.8,027.4,000.0,038.1,030.9,32.5,-001.4,0009.96,0035.83,0007.59
2023-06-28 23:02:00,SystemResetWarning,0827.8,5.00,000.00,029.8,027.4,000.0,038.1,031.0,32.0,-001.3,0009.90,0035.12,0007.58
2023-06-28 23:03:00,SystemResetWarning,0827.7,5.00,000.00,029.8,026.2,000.0,037.9,030.9,32.0,-001.3,0009.85,0034.47,0007.57
2023-06-28 23:04:00,SystemResetWarning,0827.8,5.00,000.00,029.7,025.3,000.0,037.9,030.7,32.3,-001.1,0009.82,0032.83,0007.56
2023-06-28 23:05:00,SystemResetWarning,0827.8,5.01,000.00,029.7,025.4,000.0,037.8,030.6,31.3,-001.3,0009.76,0031.75,0007.53
2023-06-28 23:06:00,SystemResetWarning,0827.7,5.00,000.00,029.6,025.7,000.0,037.9,030.5,30.8,-001.1,0009.73,0032.19,0007.52
2023-06-28 23:07:00,SystemResetWarning,0827.8,4.98,000.00,029.5,026.2,000.0,037.9,030.6,31.6,-000.5,0009.69,0030.92,0007.50
2023-06-28 23:08:00,SystemResetWarning,0827.8,5.00,000.00,029.5,026.6,000.0,037.9,030.7,32.0,-000.2,0009.61,0027.98,0007.48
2023-06-28 23:09:00,SystemResetWarning,0827.8,5.03,000.00,029.6,027.1,000.0,037.9,030.8,33.2,-000.1,0009.58,0025.90,0007.47
2023-06-28 23:10:00,SystemResetWarning,0827.9,5.00,000.00,029.6,027.4,000.0,037.9,030.9,31.9,-000.0,0009.53,0025.50,0007.43
2023-06-28 23:11:00,SystemResetWarning,0827.9,4.98,000.00,029.6,026.8,000.0,037.8,030.8,31.5,-000.1,0009.45,0024.81,0007.41
2023-06-28 23:12:00,SystemResetWarning,0827.9,5.00,000.00,029.6,025.5,000.0,037.7,030.7,31.5,0000.2,0009.46,0025.05,0007.39
2023-06-28 23:13:00,SystemResetWarning,0827.9,5.00,000.00,029.5,025.1,000.0,037.6,030.5,32.9,0000.3,0009.50,0025.19,0007.39
2023-06-28 23:14:00,SystemResetWarning,0827.9,5.01,000.00,029.4,025.3,000.0,037.7,030.3,33.6,0000.1,0009.51,0024.83,0007.40
2023-06-28 23:15:00,SystemResetWarning,0827.8,5.01,000.00,029.3,025.7,000.0,037.7,030.3,33.6,-000.1,0009.55,0024.99,0007.41
2023-06-28 23:16:00,SystemResetWarning,0827.8,5.00,000.00,029.3,026.2,000.0,037.7,030.5,33.4,0000.2,0009.61,0025.58,0007.43
2023-06-28 23:17:00,SystemResetWarning,0827.8,5.00,000.00,029.3,026.6,000.0,037.7,030.6,34.1,0000.3,0009.55,0025.03,0007.42
2023-06-28 23:18:00,SystemResetWarning,0827.8,5.00,000.00,029.3,027.1,000.0,037.7,030.7,32.7,0000.1,0009.50,0026.99,0007.41
2023-06-28 23:19:00,SystemResetWarning,0827.8,4.99,000.00,029.4,027.4,000.0,037.7,030.8,29.5,-000.1,0009.37,0027.48,0007.34
2023-06-28 23:20:00,SystemResetWarning,0827.8,4.98,000.00,029.4,027.5,000.0,037.7,030.8,28.6,0000.2,0009.24,0028.09,0007.26
2023-06-28 23:21:00,SystemResetWarning,0827.8,5.00,000.00,029.4,026.4,000.0,037.6,030.7,27.9,0000.1,0009.18,0027.27,0007.19
2023-06-28 23:22:00,SystemResetWarning,0827.8,5.01,000.00,029.3,025.2,000.0,037.5,030.5,28.4,-000.2,0009.06,0026.52,0007.12
2023-06-28 23:23:00,SystemResetWarning,0827.8,5.01,000.00,029.3,025.1,000.0,037.5,030.3,29.2,-001.2,0008.96,0025.97,0007.07
2023-06-28 23:24:00,SystemResetWarning,0827.8,5.01,000.00,029.2,025.4,000.0,037.5,030.2,29.8,-001.7,0008.90,0026.20,0007.03
2023-06-28 23:25:00,SystemResetWarning,0827.8,5.00,000.00,029.1,025.8,000.0,037.5,030.3,31.0,-001.5,0008.85,0028.27,0006.98
2023-06-28 23:26:00,SystemResetWarning,0827.7,5.00,000.00,029.1,026.3,000.0,037.5,030.4,31.7,-001.8,0008.71,0027.78,0006.92
2023-06-28 23:27:00,SystemResetWarning,0827.7,5.00,000.00,029.1,026.7,000.0,037.5,030.5,32.3,-002.3,0008.66,0027.28,0006.87
2023-06-28 23:28:00,SystemResetWarning,0827.7,4.98,000.00,029.2,027.1,000.0,037.6,030.6,33.0,-002.4,0008.63,0027.85,0006.86
2023-06-28 23:29:00,SystemResetWarning,0827.7,5.00,000.00,029.2,027.4,000.0,037.6,030.7,33.6,-002.3,0008.68,0026.66,0006.87
2023-06-28 23:30:00,SystemResetWarning,0827.7,5.00,000.00,029.3,027.1,000.0,037.5,030.7,34.2,-002.4,0008.80,0026.98,0006.95
2023-06-28 23:31:00,SystemResetWarning,0827.5,4.99,000.00,029.2,025.6,000.0,037.4,030.5,34.1,-002.7,0008.88,0026.10,0007.04
2023-06-28 23:32:00,SystemResetWarning,0827.5,5.01,000.00,029.1,025.0,000.0,037.3,030.4,34.6,-002.7,0008.97,0026.41,0007.16
2023-06-28 23:33:00,SystemResetWarning,0827.5,5.01,000.00,029.0,025.1,000.0,037.3,030.2,34.4,-003.0,0009.18,0026.85,0007.30
2023-06-28 23:34:00,SystemResetWarning,0827.4,5.00,000.00,029.0,025.5,000.0,037.4,030.1,34.0,-002.7,0009.31,0025.84,0007.41
2023-06-28 23:35:00,SystemResetWarning,0827.5,5.00,000.00,029.0,025.9,000.0,037.4,030.3,34.3,-002.7,0009.36,0024.48,0007.50
2023-06-28 23:36:00,SystemResetWarning,0827.5,5.00,000.00,029.0,026.4,000.0,037.4,030.4,34.0,-002.8,0009.51,0022.87,0007.61
2023-06-28 23:37:00,SystemResetWarning,0827.6,4.98,000.00,029.0,026.8,000.0,037.4,030.5,34.8,-002.4,0009.66,0022.96,0007.71
2023-06-28 23:38:00,SystemResetWarning,0827.6,5.02,000.00,029.1,027.2,000.0,037.4,030.6,35.0,-002.4,0009.74,0024.35,0007.77
2023-06-28 23:39:00,SystemResetWarning,0827.7,4.98,000.00,029.3,027.4,000.0,037.5,030.8,33.6,-002.8,0009.83,0024.71,0007.83
2023-06-28 23:40:00,SystemResetWarning,0827.7,5.01,000.00,029.5,027.7,000.0,037.5,030.9,34.5,-003.0,0009.90,0023.93,0007.86
2023-06-28 23:41:00,SystemResetWarning,0827.7,5.00,000.00,029.6,026.7,000.0,037.4,030.8,34.4,-002.4,0009.99,0024.17,0007.89
2023-06-28 23:42:00,SystemResetWarning,0827.7,4.99,000.00,029.6,025.4,000.0,037.4,030.5,35.7,-002.5,0010.05,0024.02,0007.91
2023-06-28 23:43:00,SystemResetWarning,0827.7,5.04,000.00,029.7,025.0,000.0,037.3,030.5,35.2,-002.3,0010.03,0023.98,0007.90
2023-06-28 23:44:00,SystemResetWarning,0827.8,4.95,000.00,029.9,025.3,000.0,037.4,030.4,33.1,-001.8,0010.00,0023.84,0007.87
2023-06-28 23:45:00,SystemResetWarning,0827.8,5.03,000.00,029.9,025.7,000.0,037.5,030.5,32.7,-001.8,0010.00,0023.82,0007.85
2023-06-28 23:46:00,SystemResetWarning,0827.8,4.99,000.00,030.0,026.1,000.0,037.6,030.6,33.1,-001.7,0010.06,0024.11,0007.83
2023-06-28 23:47:00,SystemResetWarning,0827.7,4.99,000.00,030.1,026.6,000.0,037.7,030.7,33.7,-001.6,0010.00,0023.76,0007.81
2023-06-28 23:48:00,SystemResetWarning,0827.7,5.02,000.00,030.1,027.0,000.0,037.8,030.8,33.6,-001.8,0009.99,0024.57,0007.78
2023-06-28 23:49:00,SystemResetWarning,0827.7,5.00,000.00,030.2,027.3,000.0,037.8,030.9,32.8,-001.7,0009.99,0024.12,0007.79
2023-06-28 23:50:00,SystemResetWarning,0827.7,4.98,000.00,030.2,027.6,000.0,037.9,030.9,33.0,-000.9,0009.96,0025.08,0007.79
2023-06-28 23:51:00,SystemResetWarning,0827.7,4.99,000.00,030.3,026.9,000.0,037.9,030.9,33.9,-000.8,0009.90,0024.83,0007.77
2023-06-28 23:52:00,SystemResetWarning,0827.6,5.00,000.00,030.3,025.5,000.0,037.8,030.7,34.1,-001.2,0009.86,0024.31,0007.77
2023-06-28 23:53:00,SystemResetWarning,0827.5,5.01,000.00,030.2,025.0,000.0,037.8,030.6,33.5,-001.0,0009.87,0023.90,0007.78
2023-06-28 23:54:00,SystemResetWarning,0827.6,5.00,000.00,030.1,025.2,000.0,037.9,030.4,34.4,-001.0,0009.96,0023.55,0007.79
2023-06-28 23:55:00,SystemResetWarning,0827.7,5.01,000.00,030.0,025.6,000.0,037.9,030.4,34.3,-000.9,0009.97,0023.93,0007.80
2023-06-28 23:56:00,SystemResetWarning,0827.7,5.00,000.00,030.0,026.1,000.0,038.0,030.5,34.1,-000.2,0009.93,0024.59,0007.80
2023-06-28 23:57:00,SystemResetWarning,0827.7,5.00,000.00,030.0,026.5,000.0,038.0,030.7,33.3,-000.4,0009.90,0024.78,0007.81
2023-06-28 23:58:00,SystemResetWarning,0827.8,5.00,000.00,030.0,026.9,000.0,038.0,030.7,33.7,-000.3,0009.95,0025.39,0007.81
2023-06-28 23:59:00,SystemResetWarning,0827.7,5.01,000.00,030.0,027.3,000.0,038.1,030.8,33.5,0000.5,0009.88,0025.01,0007.80
